Hourly Data Report for September 04, 2006

TORONTO CITY
ONTARIO

43°40'00.000" N
79°24'00.000" W
112.50 m
6158355
71508
XTO

Download Data

Hourly Data (September 2006)
Hourly Data Report for September 4, 2006
TIME
LST
Temp Definition
°C
Dew Point Definition
°C
Rel Hum Definition
%
Precip. Amount Definition
mm

Wind Dir Definition
10's deg

Wind Spd Definition
km/h
Visibility Definition
km
Stn Press Definition
kPa
Hmdx Definition


Wind Chill Definition


Weather Definition


00:00 15.5 13.4 87   LegendMM LegendMM   100.33     LegendNANA
01:00 15.4 13.4 88   LegendMM LegendMM   100.34     LegendNANA
02:00 15.4 13.2 87   LegendMM LegendMM   100.33     LegendNANA
03:00 14.4 12.5 88   LegendMM LegendMM   100.35     LegendNANA
04:00 13.5 11.8 89   LegendMM LegendMM   100.35     LegendNANA
05:00 13.4 11.8 90   LegendMM LegendMM   100.38     LegendNANA
06:00 13.5 12.2 92   LegendMM LegendMM   100.41     LegendNANA
07:00 14.5 12.9 90   LegendMM LegendMM   100.44     LegendNANA
08:00 15.6 13.2 86   LegendMM LegendMM   100.48     LegendNANA
09:00 17.5 13.1 75   LegendMM LegendMM   100.48     LegendNANA
10:00 19.0 14.1 73   LegendMM LegendMM   100.48     LegendNANA
11:00 19.5 14.8 74   LegendMM LegendMM   100.47     LegendNANA
12:00 18.9 13.9 73   LegendMM LegendMM   100.47     LegendNANA
13:00 18.4 14.6 79   LegendMM LegendMM   100.47     LegendNANA
14:00 19.1 13.7 71   LegendMM LegendMM   100.44     LegendNANA
15:00 19.5 14.1 71   LegendMM LegendMM   100.42     LegendNANA
16:00 20.3 14.2 68   LegendMM LegendMM   100.40     LegendNANA
17:00 19.7 13.4 67   LegendMM LegendMM   100.41     LegendNANA
18:00 19.1 13.5 70   LegendMM LegendMM   100.46     LegendNANA
19:00 18.7 13.7 73   LegendMM LegendMM   100.46     LegendNANA
20:00 18.6 13.9 74   LegendMM LegendMM   100.49     LegendNANA
21:00 18.5 14.1 76   LegendMM LegendMM   100.55     LegendNANA
22:00 18.5 14.4 77   LegendMM LegendMM   100.55     LegendNANA
23:00 18.4 14.1 76   LegendMM LegendMM   100.55     LegendNANA

Notes on Data Quality.

Legend

  • E = Estimated
  • M = Missing
  • NA = Not Available*
  • [empty] = Indicates an unobserved value
Date modified: